Classifica maschile sprint

Classifica maschile sprint



Posizione Pettorale Nome Categoria Team Tempo Distacco
13GREGORY BARNABYS17071:00:38
2350COOPER RANDS1FEDERAZIONE ESTERA1:02:40+2:02
312ALESSANDRO TERRANOVAS3FIRENZE TRI1:02:48+2:11
4349NATHAN RODGERSJFEDERAZIONE ESTERA1:02:48+2:11
54GABRIELE SALINIS37071:03:20+2:43
611ENRICO FERLAZZOS1PPRTEAM1:03:39+3:01
7348CONOR SPROULEJFEDERAZIONE ESTERA1:03:43+3:06
87ELIA MOZZACHIODIS1PPRTEAM1:04:00+3:23
9226MATTHIAS RAPHAEL KINDELS2FIRENZE TRI1:04:10+3:32
10290FRANCESCO BALESTRINIM1LIVORNO TRIATHLON1:04:28+3:50
1115ANDREA MAURIS2LOS TIGRES1:04:30+3:52
1216ERIK WOLFARTM2OXYGEN TRIATHLON1:04:35+3:57
135MARCO LADISAS17071:04:44+4:07
14237EMILIANO MINGARDIS3GRANBIKE TRIATHLON1:05:13+4:35
1535ALAIN FILONIS2TRI EVOLUTION1:05:33+4:55
16817FABIO PARISS4ELBAMAN TEAM1:05:34+4:57
17154ALESSIO GESSAS1ASD SPEZIA TRIATHLO1:05:38+5:01
18307MAURIZIO PIANTANIDAM1BUSTO ARSIZIO A.R.C.1:05:41+5:04
1918SANDRO MARIA CROCELLIS3CCP ASD1:06:07+5:29
2021ANDREA PIOVESANAS3FIRENZE TRI1:06:13+5:35
2128DANIELE DI FRESCOS3CUS FERRARA1:06:16+5:38
2251LUCA BARSIS4FDM TRI1:06:17+5:39
2332MICHELE BELLEMOM1A.S. DELFINO CHIOGGI1:06:17+5:39
24295STEFANO VERONIM1GALILEO TRIATHLON1:06:21+5:43
2519GABRIELE BELLINZONAS3FREEZONE1:06:22+5:45
2626GIUSEPPE FINAZZIS3DESENZANO TRIATHLON1:06:25+5:47
27232FILIPPO CAPITANIS3MODENA TRIATHLON1:06:28+5:51
2836ERMES MELONIM1DESENZANO TRIATHLON1:06:29+5:52
2917MASSIMO FERRARIM2DESENZANO TRIATHLON1:06:37+6:00
3048MARCO BERGAMINIS47071:06:43+6:05
3113LUCA BORGIANNIYBLA FENICE TRI1:06:49+6:11
3261MARCO VANGELISTIS4FIRENZE TRI1:06:57+6:19
3337LORENZO ROSSIS3LIVORNO TRIATHLON1:07:02+6:24
3449GIULIO TOTAS3SPORTSLIFE1:07:15+6:37
3525MATTEO BETTATIS3T.D. RES1:07:22+6:44
3630RICCARDO BARBIERIS4CUS FERRARA1:07:51+7:13
3741FRANCESCO BARBIERI SARACENOM2TRI GENOVA1:07:54+7:16
3820PAOLO FAVILLAS2LIVORNO TRIATHLON1:07:57+7:19
39109DANIELE LANZAS4DESENZANO TRIATHLON1:08:08+7:30
40284GIANLUCA BONINIM1SPORTING CLUB CAPANN1:08:23+7:46
41253STEFANO LARCHERS4DOLOMITICA NUOTO CTT1:09:03+8:25
4294PAOLO OLIVIERIS2OLIMPIACOLLE1:09:14+8:36
43286GIACOMO CARPENITOM1MODENA TRIATHLON1:09:37+8:59
4429ANDREA MARTINELLIS3LIVORNO TRIATHLON1:09:39+9:01
4558FABIO BELLINIM2LIVORNO TRIATHLON1:09:42+9:04
46217MARCO CAPOCCIS1CCP ASD1:09:43+9:05
4763MATTIA LUCIANOS3A.S.D. VARESE TRIATH1:09:48+9:11
4846ROBERTO ANDREONM1PADOVANUOTO FIDIA1:09:51+9:13
49215MATTEO MAGELLIS1AMICI DEL NUOTO VVF1:09:55+9:17
5047DINO PARRONIM2CCP ASD1:09:58+9:20
51224FLAVIO MILAZZOS2VERSILIA SPORT ASD1:09:58+9:20
5231DAVID GALLARATOS4A.S.D. TORINO TRIATH1:09:59+9:22
53279MAURIZIO GREGUOLDOM1BUSTO ARSIZIO A.R.C.1:10:00+9:22
54256RICCARDO DELITALAS4OLIMPIC TRIATHLON1:10:02+9:25
55138LUCA PINOTTIM2DA PAURA1:10:17+9:39
5656ANDREA PUCCIS4FIRENZE TRI1:10:18+9:41
57141SERGIO PORTALES4CCP ASD1:10:20+9:43
5839STEFANO BIANCALANAYBLA FENICE TRI1:10:26+9:49
5967MATTEO DENTIM2ZEROTRENTA TRIATHLON1:10:30+9:53
60372MAICOL MASUZZOS3TESSERAMENTO GIORNALIERO1:10:40+10:02
61252ANDREA RAMELLA POLLONES4IRONBIELLA1:10:42+10:04
62814RICCARDO GIORGIO MATERAZZIM3TESSERAMENTO GIORNALIERO1:10:46+10:09
6384AUGUSTO ROSIM1DUEMMECORSE1:10:58+10:21
64222GIOVANNI STEFANIAS2FREESTYLE TRIATHLON1:11:02+10:24
65129STEFANO MARTELLIM3ATOMICA TRIATHLON1:11:05+10:27
66249CRISTIAN CHINELLIS4PIACENZA TRI VIVO1:11:05+10:28
6753LUCA BRANCATIS4LIVORNO TRIATHLON1:11:09+10:31
68123ROBERTO RUSSOS4TRI TEAM BRIANZA1:11:15+10:37
6959FRANCESCO CICCARELLOS4MERAVIGLIE TRIATHLON1:11:19+10:41
7014GUGLIELMO HINRICHSENS1TTS1:11:21+10:44
7178SANDRO BAGNOLIS41A MISTRAL TRIATHLON1:11:28+10:51
7287FABIO DANESIM2TRIATHLON BERGAMO1:11:29+10:51
7388MAURIZIO PIATTOLIM2MERAVIGLIE TRIATHLON1:11:33+10:56
74296ANGELO SIMONEM1FDM TRI1:11:38+11:00
7579ANDREA RONDILONES3AQUATICA TORINO S.D.1:11:38+11:00
7650DANIELE BONINIS1TTS1:11:53+11:15
77370MATTEO ZANELLAS3TESSERAMENTO GIORNALIERO1:11:54+11:16
78176CRISTIAN PUGLIAS4KINO - MANA1:12:06+11:28
79102LEONARDO TRIVELLAM2DESENZANO TRIATHLON1:12:13+11:35
8055STEFANO GOTTARDIM3DESENZANO TRIATHLON1:12:14+11:36
8164CRISTIAN PADOVAM1DESENZANO TRIATHLON1:12:24+11:46
82276LEONARDO VAGLINIM1SPORTING CLUB CAPANN1:12:31+11:54
8385ANGELO CARINIS4PERUGIA TRIATHLON1:12:34+11:57
84100VINCENZO CIZ GAUTIERIM3DDS1:12:43+12:05
85391UMBERTO TARARAM1TESSERAMENTO GIORNALIERO1:12:44+12:06
8677MICHELE BIBIM2TRI EVOLUTION1:12:45+12:08
8743LEONARDO ALTAMURAM1LA FENICE TRI1:12:47+12:10
88142LUCA DANESINIS3RASCHIANI TRI PAVESE1:12:48+12:11
8970DANIELE CIANDRIM1LIVORNO TRIATHLON1:12:49+12:12
9040GRAZIANO MARTINELLIM2LIVORNO TRIATHLON1:12:49+12:12
91851ENRICO SALINIM4FDM TRI1:12:58+12:20
92229MATTEO PANZETTIS2ATLETICA MANARA1:13:05+12:28
93300MAURIZIO CAROTTIM1SBR 31:13:11+12:34
9483MASSIMO GENSINIM2ESSECI1:13:14+12:36
95113SEBASTIANO MARCO DE LUCAS2TRI EVOLUTION1:13:20+12:42
96261FRANCESCO VECCIS4TRI EVOLUTION1:13:22+12:44
9797FEDERICO BULLETTIS4TRI EVOLUTION1:13:23+12:45
9854MARCO BACELLES4PADOVA TRIATHLON1:13:39+13:01
99104ALESSIO ZERBINATIYBLA FENICE TRI1:13:46+13:08
100311RICCARDO SORBAM2FREEZONE1:13:52+13:14
101301RODOLFO GARZELLAM1EMPOLI TRIATHLON1:13:53+13:15
102302ANDREA BECHERINIM1CCP ASD1:13:56+13:19
10372LORENZO BALDIM2LIVORNO TRIATHLON1:13:57+13:19
104120DAVIDE MERGONIM1TTS1:13:58+13:20
105148MASSIMILIANO GUZZETTIS4SARONNO TRIATHLON1:14:08+13:31
106870LUCIANO BERTOCCHIM4DESENZANO TRIATHLON1:14:09+13:31
107213DAVIDE ROSSIYBTRI EVOLUTION1:14:10+13:32
10881PIERO TUMIATIS4CUS FERRARA1:14:18+13:40
10974MARCO VITALIS3CUS FERRARA1:14:18+13:40
11068ANDREA NICOLAM1CUS PARMA MEDEL1:14:25+13:47
111854MASSIMO ROSATIM4CUS PARMA MEDEL1:14:28+13:50
112299LUCA NONNIM1VIS CORTONA1:14:33+13:55
113128MANUEL ROSINIM1ESSECI1:14:35+13:57
114267ALESSANDRO DE TOMMASOS4GREEN HILL1:14:38+14:00
11582AMEDEO FORMICAM2TEAM LADISPOLI TRIAT1:14:38+14:01
116258BARTOLOMEO BARTOLIS4ESSECI1:14:38+14:01
117214MARCO RIGACCIYBFIRENZE TRI1:14:43+14:05
118244GIORGIO MARCHETTIS3FDM TRI1:14:43+14:05
119326MASSIMILIANO PAGNIM2ESCAPE TUSCANY TRIAT1:14:43+14:05
120118ANTONIO LAVORGNAM1MERAVIGLIE TRIATHLON1:14:44+14:06
121112MARCO MAGAGNOTTIM1PESCHIERA TRI1:14:45+14:07
122886FRANCESCO PALETTIS1TESSERAMENTO GIORNALIERO1:14:46+14:09
123125SIMONE MARCHETTIS2FIRENZE TRI1:14:51+14:13
124266MIRKO ROSSIS4CCP ASD1:14:51+14:13
125341ANTONY FERRARIM3FDM TRI1:14:51+14:14
12660ROBERTO ALLEGROM1FIRENZE TRI1:14:52+14:14
127278FABIO CHIARIELLOM1CANOTTIERI IRNO1:14:55+14:17
128289MASSIMO IANNIM1CANOTTIERI IRNO1:14:55+14:17
129115FAUSTO VAIANIM21A MISTRAL TRIATHLON1:15:02+14:25
13090MIRKO LOMBARDIM1VERSILIA SPORT ASD1:15:10+14:32
13186MATTIA BERTONS4PADOVANUOTO FIDIA1:15:15+14:37
132872RICARDO DUYKERS MANNOCCIM4ASD SPEZIA TRIATHLO1:15:18+14:40
13396MASSIMILIANO LENCIM2FIRENZE TRI1:15:27+14:50
134857MARCO PASQUALIM4TTS1:15:29+14:52
13569FRANCESCO UBERTOM1ZEROTRENTA TRIATHLON1:15:30+14:52
13675ANTONGIULIO SORRENTINOM1FIRENZE TRI1:15:33+14:55
137133RICCARDO FRASCHETTIM3LIVORNO TRIATHLON1:15:35+14:57
138242RUDY BELOTTIS37071:15:37+15:00
139159ANDREA CALVIM1A.S.D. VARESE TRIATH1:15:42+15:05
140234LUCA MAZZANTIS3PHISIO SPORT LAB TRI1:15:48+15:10
141162FAUSTO BULLERIM2EMPOLI TRIATHLON1:15:49+15:11
142247MATTEO VANNIS3PISARRC SEZ. TRIATHL1:15:56+15:18
143352STEFANO ANDREOLIS2TESSERAMENTO GIORNALIERO1:15:56+15:18
144103CRISTIAN BELPEDIOM1TRIATHLON AURORA1:16:02+15:24
145126LORENZO CHIARIS3VIADANA TRIATHLON1:16:05+15:27
146248ALESSANDRO GIUFFREDIS4CUS PARMA MEDEL1:16:16+15:39
14776MARCO MALUCELLIM3ASD IL DELFINO SPOLE1:16:17+15:39
14845ALESSIO SENESIS3TRIATHLON GROSSETO A1:16:23+15:46
149228FABIO REBECCHIS2ATL. MDS PANARIAGROU1:16:26+15:49
150101VIERI PARIGIS4ROAD RUNNERS1:16:27+15:49
151227ALESSANDRO POVOLERIS2ASD VICENZA TRIATHLO1:16:35+15:57
152220ALBERTO ZACCARINIS2AMICI DEL NUOTO VVF1:16:47+16:09
153309GIACOMO CARLUCCIM1IL GREGGE RIBELLE1:16:50+16:12
154378LORENZO CALINIS4TESSERAMENTO GIORNALIERO1:16:53+16:16
155238ALESSIO LULLIS3TERNI TRIATHLON1:16:56+16:18
156127LUCA CAPPELLOS3FREE MIND TEAM1:16:59+16:21
157139PASQUALE D'ANGELOS4TRIATHLON AURORA1:17:01+16:24
15871STEFANO DELLA TORREM2RHO TRIATHLON CLUB1:17:01+16:24
159158PATRIZIO VIANIM1LUCCA TRIATHLON ASD1:17:05+16:27
160146ALESSANDRO FIORINIM2TTS1:17:14+16:37
161288STEFANO GRECOM1ESSECI1:17:15+16:37
162357RAUL MANSILLAS2FEDERAZIONE ESTERA1:17:15+16:37
163219MASSIMO MAGISTRALIS2NJOY TRI VA1:17:17+16:40
164333FRANCESCO PUGLIESEM3FORHANS TEAM1:17:23+16:45
165153MARCO GIAMBASTIANIS3LA FENICE TRI1:17:23+16:45
166114GIOVANNI CIMMINIELLOM3CANOTTIERI NAPOLI1:17:34+16:56
167221FILIPPO MARANGONIS2A.S. DELFINO CHIOGGI1:17:34+16:57
168281MATTEO MASSARDIM1TEAM BIKE GUSSAGO AS1:17:35+16:57
16993ALESSIO GIOVANNESCHIM1LIVORNO TRIATHLON1:17:36+16:58
170169GIOVANNI BERTUGLIM2AVIA PERVIA1:17:42+17:04
171294ENRICO GABELLAM1IN SPORT SRL SSD1:17:46+17:09
172414RICCARDO FERRIM2TESSERAMENTO GIORNALIERO1:17:51+17:13
173380ANDREA CONCHAUDS4TESSERAMENTO GIORNALIERO1:17:51+17:13
174137MATTEO COTURRIYBLUCCA TRIATHLON ASD1:17:51+17:13
175180BIAGIO MALTESEM3MODENA TRIATHLON1:17:56+17:18
176367LUCA PATTAVINAS3TESSERAMENTO GIORNALIERO1:18:09+17:31
177417FABRIZIO D'AURIZIOM2TESSERAMENTO GIORNALIERO1:18:09+17:31
178265GIACOMO COLOMBARIS4SARONNO TRIATHLON1:18:14+17:36
179856DAVIDE CARDELLINIM4FIRENZE TRI1:18:15+17:37
180156MARCO MANZONIS3TEAM DE ROSA SANTINI1:18:15+17:37
18133MATTIA MARCIGAGLIAS4PESCHIERA TRI1:18:17+17:40
182314MANUEL MONTANARIM2T. T. RAVENNA1:18:21+17:43
18399SIMONE DEL RIOS3GALILEO TRIATHLON1:18:21+17:44
184353GIOELE CIANCALEONIS2TESSERAMENTO GIORNALIERO1:18:22+17:44
185873GIACOMO STRAFFIM4FORHANS TEAM1:18:22+17:45
186327ALDO MACHERELLIM2TTS1:18:25+17:47
187338ROBERTO BARBIERIM3TTS1:18:25+17:48
188305ROBERTO CASARETTIM1CUS PARMA MEDEL1:18:28+17:50
189805PAOLO CAPPELLINIM2TESSERAMENTO GIORNALIERO1:18:39+18:01
190803FABRIZIO MENICONIM2TESSERAMENTO GIORNALIERO1:18:40+18:03
191324ROBERTO NATALIM2PERUGIA TRIATHLON1:18:55+18:17
192152ANDREA MARCUZZIM1EMPOLI TRIATHLON1:18:56+18:19
193813GIANFRANCO PEVERADAM3TESSERAMENTO GIORNALIERO1:19:00+18:22
194331ROBERTO PIERINIM2CCP ASD1:19:08+18:30
195334GIANLUCA LEUZZIM3FORHANS TEAM1:19:16+18:39
196874MICHELE GENTILEM4FORHANS TEAM1:19:23+18:46
197287ENRICO BORSOTTIM1TRI GENOVA1:19:30+18:52
198325RICCARDO RASSUM21A MISTRAL TRIATHLON1:19:36+18:58
199167SIMONE CURCIS3ASD TEAM HIBISCUS1:19:48+19:10
20091DANIELE ARCARIM2ZEROTRENTA TRIATHLON1:19:56+19:18
201184MARCO ROTAS4TRIATHLON BERGAMO1:19:57+19:20
202121DANIELE SCARLINIM2ESSECI1:20:01+19:24
203322PAOLO ODDIM2ATLETICA MANARA1:20:08+19:31
204140VITTORIO CUTELLIS1TRIATHLON AURORA1:20:08+19:31
205250TOMMASO NERIS41A MISTRAL TRIATHLON1:20:12+19:34
206150ALESSANDRO SANTIM1ASD IL DELFINO SPOLE1:20:19+19:42
207182MAURIZIO CIANCALEONIM3CUSIOCUP1:20:20+19:43
208117FRANCO BACCELLIM2VERSILIA SPORT ASD1:20:21+19:44
209355FABRIZZIO FERREIRA DOS SANTOSS2TESSERAMENTO GIORNALIERO1:20:22+19:44
210111ROBERTO ZANOTTIM2TRI NOVARA1:20:22+19:45
211283CHRISTIAN ROBERTO PICONEM1FREESTYLE TRIATHLON1:20:28+19:50
212136GIANLUCA ROTAS2MERAVIGLIE TRIATHLON1:20:29+19:51
213195PIERO PAPALINIM2DUEMMECORSE1:20:38+20:01
214189NICOLA MARCHESELLIM1ATLETICA MANARA1:20:45+20:08
215105ALESSANDRO CARRARAM2LIVORNO TRIATHLON1:20:48+20:11
216354FILIPPO MAGGIONIS2TESSERAMENTO GIORNALIERO1:20:54+20:17
217402PAOLO FAILLIM1TESSERAMENTO GIORNALIERO1:21:05+20:27
218131MARCO ACCORSINIM2PISARRC SEZ. TRIATHL1:21:07+20:29
219149MASSIMILIANO GORRIERIM3IVREA TRIATHLON1:21:09+20:31
220119MARCO PERRELLAM1CUS PROPATRIA MILANO1:21:09+20:32
221134MICHELE CALEGARIM2RHO TRIATHLON CLUB1:21:10+20:33
222310FRANCO CECCANIBBIM2VIS CORTONA1:21:30+20:52
223175GIOVANNI SCIANCALEPOREM2TRIATHLON AURORA1:21:33+20:55
224177FEDERICO TACCHINIM2CANAVESE TRIATHLON1:21:35+20:58
225374MARCO PRATICÒS4TESSERAMENTO GIORNALIERO1:21:41+21:03
226336MARCO PEZZALIM3TRIATHLON BERGAMO1:21:43+21:05
227376RICCARDO VITALIS4TESSERAMENTO GIORNALIERO1:21:45+21:07
228884FULVIO PORCUM4TESSERAMENTO GIORNALIERO1:21:47+21:09
229859MATTEO FALASCONIM1DESENZANO TRIATHLON1:21:52+21:15
230366MATTEO ROMANIS3TESSERAMENTO GIORNALIERO1:21:52+21:15
231858ALESSANDRO CINIM4SPORTING CLUB CAPANN1:22:02+21:24
232871FABIO FORMISANOM4FORHANS TEAM1:22:03+21:26
233364LUCA AMOROTTIS3TESSERAMENTO GIORNALIERO1:22:12+21:34
234415ANDREA BRANDUSCHIS3TESSERAMENTO GIORNALIERO1:22:20+21:42
235383NICOLA BINELLIS4TESSERAMENTO GIORNALIERO1:22:24+21:46
236241ALESSIO MALFATTIS3TRIARIOS TRIATHLON1:22:24+21:47
237394MASSIMO GIOVINAZZOM1TESSERAMENTO GIORNALIERO1:22:30+21:52
238170FABIO COLOMBIS2TRIIRON1:22:39+22:02
239339ADRIANO BISCUSOM3FORHANS TEAM1:22:54+22:17
240371MICHAEL SERRIS3TESSERAMENTO GIORNALIERO1:23:03+22:26
241181EMANUELE OTTAGGIOM1TRI GENOVA1:23:04+22:26
242861PAOLO BARTOLOZZIM5VERSILIA SPORT ASD1:23:07+22:29
243382GIANLUCA BELLANTUONOS4TESSERAMENTO GIORNALIERO1:23:19+22:41
244375FULVIO PASQUINUZZIS4TESSERAMENTO GIORNALIERO1:23:30+22:52
245365EMANUELE FABIANIS3TESSERAMENTO GIORNALIERO1:23:30+22:52
24692GIORGIO SANGALLIM2LC BRUGHERIO 21:23:34+22:56
247862ENRICO SARTORIM4FERRARA TRIATH1:23:35+22:58
248164ALESSANDRO VANZINIM2AVIA PERVIA1:23:44+23:06
249260GIOVANNI MOSELLAS4FIRENZE TRI1:23:50+23:12
250389ANDREA VITALIM1TESSERAMENTO GIORNALIERO1:24:03+23:26
251393MARCELLO GRIVELLIM1TESSERAMENTO GIORNALIERO1:24:04+23:26
252405ALBERTO GRIVELLIM1TESSERAMENTO GIORNALIERO1:24:04+23:26
253340GABRIELE CAMPANINIM3CUS PARMA MEDEL1:24:09+23:32
254330ANDREA GIACOMO DELLE ROSEM2APD ANDREANA SACRA F1:24:17+23:40
255320PIETRO GUSTINUCCIM2PISARRC SEZ. TRIATHL1:24:18+23:40
256388EDOARDO PAPERIM1TESSERAMENTO GIORNALIERO1:24:27+23:49
257387MAURIZIO CAPECCHIS4TESSERAMENTO GIORNALIERO1:24:44+24:06
258143ALESSANDRO PERINIM31A MISTRAL TRIATHLON1:24:46+24:08
259363NICOLA GIANNINIS3TESSERAMENTO GIORNALIERO1:24:47+24:09
260271MARCO AGOSTINIS4FORHANS TEAM1:24:49+24:12
261384ANDREA CHIOCCHIS4TESSERAMENTO GIORNALIERO1:24:59+24:22
262166MARCO CAVALLERIM3FREEZONE1:25:07+24:30
263400ANDREA CIBALDIM1TESSERAMENTO GIORNALIERO1:25:11+24:33
264398FRANCESCO PELLEGRINIM1TESSERAMENTO GIORNALIERO1:25:17+24:40
265411ALEXANDRE BONOTTIM2TESSERAMENTO GIORNALIERO1:25:17+24:40
266879GIOVANNI PASTORELLIM6SPARTANS BOLOGNA1:25:19+24:41
267315CALOGERO GROSSOM2TRIATHLON MAZARA1:25:24+24:46
268885ROBERTO BROZZIS4KINO - MANA1:25:26+24:48
269362FILIPPO BADIALIS3TESSERAMENTO GIORNALIERO1:25:27+24:49
270251UGO RUSSOS41A MISTRAL TRIATHLON1:25:32+24:54
271135GIANNI VISNADIM3DDS1:25:47+25:09
272809EDOARDO ROMEOM3TESSERAMENTO GIORNALIERO1:25:52+25:15
273381CHRISTIAN PASSARINIS4TESSERAMENTO GIORNALIERO1:25:57+25:20
274404STEFANO GIACHIM1TESSERAMENTO GIORNALIERO1:26:00+25:22
275147GIOVANNI PIPPAM2LUCCA TRIATHLON ASD1:26:00+25:22
276403ENRICO PEZZANOM1TESSERAMENTO GIORNALIERO1:26:00+25:22
277255ALESSANDRO CANGIOLIS4ESSECI1:26:01+25:23
278206ALESSANDRO PALLADINOM1ZEROTRENTA TRIATHLON1:26:05+25:27
279243OMAR BOCCHIS3KINO - MANA1:26:06+25:28
280193CRISTIANO GIROLAS4ROAD RUNNERS1:26:08+25:30
281329ANGELO PADOVANIM2SGM TRIATHLON1:26:16+25:39
282160CRISTIANO ZIRONEM11A MISTRAL TRIATHLON1:26:16+25:39
283860MARINO PRATESIM6PHISIO SPORT LAB TRI1:26:22+25:45
284225ALBERTO REGGIANIS2ATL. MDS PANARIAGROU1:26:24+25:47
285155MIRCO PAGGINIM3LIVORNO TRIATHLON1:26:25+25:47
286130ANDREA MENEGHETTIS4A.S.D. VARESE TRIATH1:26:33+25:55
287245FEDERICO FLORIANIS3ROAD RUNNERS1:26:34+25:57
288864ENRICO GIULIANO BELOTTIM4FREEZONE1:26:38+26:00
289161GIOVANNI POLIDORIM2TRIATHLON GROSSETO A1:26:41+26:03
290346FABIO STEFANO VILLAM3TRI TEAM BRIANZA1:26:48+26:11
291151ALESSANDRO CARLOTTIS3MERAVIGLIE TRIATHLON1:26:50+26:13
292165LUCA PELFERS4MERAVIGLIE TRIATHLON1:26:52+26:14
293345FABRIZIO VENEZIANIM3CANOTRIATHLON1:26:54+26:17
294804FILIPPO CARFI'M2TESSERAMENTO GIORNALIERO1:26:56+26:18
295277LUCA PANCIROLLIM1MMTT1:26:57+26:19
296420MARCO CAVANIM2TESSERAMENTO GIORNALIERO1:26:59+26:21
297280SALVATORE DI TRAPANIM1DDS1:27:06+26:28
298192GIANFRANCO BONACCURSOS4TRI TEAM BRIANZA1:27:14+26:36
299110ROBERTO CARDOSIM1LIVORNO TRIATHLON1:27:29+26:52
300318ROBERTO BERTANZIM2DESENZANO TRIATHLON1:28:05+27:27
301173PAOLO CUTELLIM3TRIATHLON AURORA1:28:05+27:27
302385ROBERTO BARTOLINIS4TESSERAMENTO GIORNALIERO1:28:20+27:42
303883GREGORY BURNEYM4TESSERAMENTO GIORNALIERO1:28:38+28:01
304285AMERIGO BANCHELLINIM11A MISTRAL TRIATHLON1:28:40+28:02
305216ALESSANDRO MAZZURCOS11A MISTRAL TRIATHLON1:28:42+28:04
306274CHRISTIAN PARMIGIANIS4ASD CNM TRIATHLON1:28:50+28:13
307208MICHELE SURACIM11A MISTRAL TRIATHLON1:29:00+28:23
308168PAOLO BADAM3TRI TEAM BRIANZA1:29:18+28:41
309877GIANLUCA CASTOLDI PAGANELLIM4ESSECI1:29:21+28:43
310313MARCO VALORIM2SPORTING CLUB CAPANN1:29:34+28:56
311144MAURIZIO MUSCONIM2IMOLA TRIATHLON1:29:36+28:58
312319GENNARO NANNOLAM2CANOTTIERI NAPOLI1:29:37+29:00
313379ROBERTO BERNARDIS4TESSERAMENTO GIORNALIERO1:29:54+29:16
314360TOMMASO D'ALESSANDRISS2TESSERAMENTO GIORNALIERO1:29:56+29:18
315359ALESSIO CIAMBELLOTTIS2TESSERAMENTO GIORNALIERO1:30:10+29:32
316186FABIO EMILIO ABATIM2CUS PROPATRIA MILANO1:30:12+29:34
317312DAVIDE SARASINIM2KINO - MANA1:30:23+29:45
318806MIRCO FEDERICIM2TESSERAMENTO GIORNALIERO1:30:23+29:45
319812DARIO DI STEFANOM3TESSERAMENTO GIORNALIERO1:30:36+29:58
320174LUCIO CASARICOM3TRI TEAM BRIANZA1:30:42+30:04
321275GIANLUCA FRATESCHIS4ROMA TRIATHLON1:30:43+30:06
322254SIMONE PARISIS4DUE PONTI1:31:02+30:24
323179ALESSANDRO ARAZZIM3TRIATHLON GROSSETO A1:31:25+30:47
324231RICCARDO SETTIS3RASCHIANI TRI PAVESE1:31:28+30:50
325399MASSIMILIANO SANTAMARIAM1TESSERAMENTO GIORNALIERO1:31:33+30:56
326801GIAMPIERO SCUZZARELLOM2TESSERAMENTO GIORNALIERO1:31:36+30:58
327306LUCA RENZINIM1TRIATHLON GROSSETO A1:32:11+31:34
328342ALESSANDRO BETTINIM3ROMA TRIATHLON1:32:18+31:41
329865GIANNI GIUSEPPE BETTUCCHIM6SAI FRECCE BIANCHE1:32:43+32:05
330197MASSIMO FERRARIOS3HAPPY RUNNER CLUB1:32:51+32:14
331257LUCA COCCHIS4ASD SPEZIA TRIATHLO1:33:07+32:29
332205RAFFAELE PALETTIM1LC BRUGHERIO 21:33:10+32:33
333397RICCARDO BADIIM1TESSERAMENTO GIORNALIERO1:33:14+32:36
334316ALBERTO BUSSOLINOM2ASD SPEZIA TRIATHLO1:33:20+32:42
335263JACOPO ZANOTTIS4EUROPA SSD1:33:25+32:48
336235EDUARDO NOFERINIS3TRI EVOLUTION1:33:32+32:54
337297FABRIZIO BOGANIM1TRI EVOLUTION1:33:32+32:54
338132ANDREA BALDERIM3CUS FERRARA1:33:32+32:55
33952EDOARDO CASUJELBAMAN TEAM1:33:59+33:22
340808PIETRO MISTOM3TESSERAMENTO GIORNALIERO1:34:06+33:29
341198MASSIMO GEROMINOS4RHO TRIATHLON CLUB1:34:16+33:39
342390IGOR LARIM1TESSERAMENTO GIORNALIERO1:34:19+33:42
343196GIANLUCA MALFATTIM2LUCCA TRIATHLON ASD1:34:20+33:43
344171LUCA DE LUCAM2TRIATHLON AURORA1:34:34+33:57
345210DAVIDE CARLO CAPARINIM2TRIATHLON AURORA1:34:35+33:57
346412MARCO TORACCAM2TESSERAMENTO GIORNALIERO1:34:35+33:58
347818GIANLUCA GIOVANNETTIM3PISA TRIATHLON1:34:50+34:12
348876ROBERTO BOCCARDOM4A.S.D. TORINO TRIATH1:35:21+34:44
349335ALBERTO ALLEGRINIM3LUCCA TRIATHLON ASD1:35:45+35:08
350185LORENZO GAZZINIM2GALILEO TRIATHLON1:36:04+35:27
351273ALESSIO CHECCHIS4ESSECI1:36:39+36:02
352200STEFANO BOSSIOS3FIRENZE TRI1:37:48+37:10
353410LUCA ZAMBELLIM2TESSERAMENTO GIORNALIERO1:37:51+37:14
354207MARCO CREMAS4PESCHIERA TRI1:37:57+37:19
355867PASQUALE LIONETTIM4TRI TEAM BRIANZA1:38:06+37:29
356377GIANPAOLO CASADEI SANTUCCIS4TESSERAMENTO GIORNALIERO1:38:19+37:41
357356VITTORIO BUCCIS2TESSERAMENTO GIORNALIERO1:38:19+37:41
358407FABIO LORENZINIM1TESSERAMENTO GIORNALIERO1:38:35+37:58
359292GIACOMO BENASSIM1TRI EVOLUTION1:38:42+38:04
360419ROBERTO NOCENTINIM2TESSERAMENTO GIORNALIERO1:39:45+39:07
361187WERTHER GIANNINIM1SURFING TRI ROMAGNA1:40:06+39:28
362395PAOLO BRUSONIM1TESSERAMENTO GIORNALIERO1:40:17+39:39
363878PIETRO CUSCELAM5CUS PROPATRIA MILANO1:40:17+39:40
364202DANIELE CASARICOM3TRI TEAM BRIANZA1:40:18+39:41
365810PAOLO MARIANIM3TESSERAMENTO GIORNALIERO1:40:23+39:45
366386MASSIMO BERTASSIS4TESSERAMENTO GIORNALIERO1:40:45+40:07
367866MICHELE CATTANIAM4PPRTEAM1:40:48+40:10
368882BERND WEIßHAARM4FEDERAZIONE ESTERA1:41:32+40:54
369239ROBERTO MAGNANIS31A MISTRAL TRIATHLON1:41:56+41:18
370332GIAMPIETRO NARDOM2FREESTYLE TRIATHLON1:41:58+41:20
371811GIORGIO SCANDELLIM3TESSERAMENTO GIORNALIERO1:42:04+41:26
372163JURI TEBALDO BASSANS4SAI FRECCE BIANCHE1:42:35+41:58
373881VINCENZO DATTILOM7FORHANS TEAM1:42:38+42:01
37423ROBERTO MILANIM1A.S.D. TORINO TRIATH1:45:12+44:35
375344FRANCESCO LENCIONIM3LA FENICE TRI1:45:33+44:56
376802HERVE LUNARDM2TESSERAMENTO GIORNALIERO1:47:06+46:28
377304MARIO SIRABELLAM1HAPPY RUNNER CLUB1:47:30+46:52
378869CARLOS ALBERTO BACCIM6LOS TIGRES1:48:12+47:34
379880GIUSEPPE SULISM6LUCCA TRIATHLON ASD1:48:39+48:01
380269MASSIMILIANO LOTRONTOS4KINO - MANA1:49:39+49:02
381868GIORGIO MARCHIORETTOM6A.S.D. TORINO TRIATH1:49:51+49:14
382211MAURO PELUCCHIM2TRI TEAM BRIANZA1:58:18+57:41
383416ENRICO NEUMANNM2TESSERAMENTO GIORNALIERO2:00:56+1:00:18
384875DAVIDE MEZZALIRAM4PADOVANUOTO FIDIA2:06:41+1:06:03
DNF44GAETANO LANFRANCHIM1707
DNF107THOMAS FUMAGALLIS1SPARTACUS TRILECCO
DNF264DANIELE CIONIS4LIVORNO TRIATHLON
DNF282PIERPAOLO PAOLONEM1CCP ASD
DNF194FEDERICO MESSINAM1LIVORNO TRIATHLON
DNF308MASSIMO GELMUZZIM1MODENA TRIATHLON
DNF373EDOARDO STEFANIS3TESSERAMENTO GIORNALIERO
DNF317GIOVANNI BALUCANI BALUCANIM2PERUGIA TRIATHLON
DNF816MAURO BERGOS4SAI FRECCE BIANCHE
DNF62VALERIO OTTAVIANIM1ROMA TRIATHLON
DNF9ALBERTO CASADEIS3G.S. FF.OO.
DSQ413ALEXANDRE ASTIERM2TESSERAMENTO GIORNALIERO1:40:22+39:45
DSQ358FRANCESCO ARICÒS2TESSERAMENTO GIORNALIERO1:28:43+28:05
DSQ188PIETRO LALIAS4CANOTTIERI IRNO1:21:11+20:33
DSQ66VITTORIO CELLINIM1ASD SPEZIA TRIATHLO1:09:53+9:16
    ISTITUZIONI >>